| time (UTC) | temp F | wind direction | speed MPH | gust MPH | rain 1hr in | rain 24hr in | rain mn in | humidity % | barometer mb |
| 20260506084532 | 45 | 304 | 0.0 | 0.0 | 0.00 | 0.00 | 0.00 | 97 | 1017.1 |
| 20260506083035 | 45 | 304 | 0.0 | 0.0 | 0.00 | 0.00 | 0.00 | 96 | 1017.1 |
| 20260506082034 | 46 | 304 | 0.0 | 0.0 | 0.00 | 0.00 | 0.00 | 96 | 1017.1 |
| 20260506081037 | 46 | 304 | 0.0 | 0.0 | 0.00 | 0.00 | 0.00 | 96 | 1017.1 |
| 20260506080538 | 46 | 304 | 0.0 | 0.0 | 0.00 | 0.00 | 0.00 | 96 | 1017.1 |
| 20260506073039 | 46 | 304 | 0.0 | 0.0 | 0.00 | 0.00 | 0.00 | 96 | 1017.0 |
| 20260506072542 | 46 | 304 | 0.0 | 0.0 | 0.00 | 0.00 | 0.00 | 96 | 1017.0 |
| 20260506072042 | 46 | 304 | 0.0 | 0.0 | 0.00 | 0.00 | 0.00 | 95 | 1017.0 |
| 20260506071543 | 46 | 304 | 0.0 | 0.0 | 0.00 | 0.00 | 0.00 | 95 | 1017.1 |
| 20260506071041 | 46 | 304 | 0.0 | 0.0 | 0.00 | 0.00 | 0.00 | 95 | 1017.1 |
| 20260506070542 | 46 | 304 | 0.0 | 0.0 | 0.00 | 0.00 | 0.00 | 94 | 1017.0 |
| 20260506062046 | 47 | 325 | 0.0 | 0.0 | 0.00 | 0.00 | 0.00 | 92 | 1016.9 |
| 20260506061547 | 47 | 325 | 0.0 | 0.0 | 0.00 | 0.00 | 0.00 | 92 | 1016.9 |
| 20260506061048 | 48 | 325 | 0.0 | 0.0 | 0.00 | 0.00 | 0.00 | 93 | 1016.7 |
| 20260506051056 | 49 | 284 | 0.0 | 0.0 | 0.00 | 0.00 | 0.00 | 85 | 1016.5 |
| 20260506045058 | 50 | 284 | 0.0 | 0.0 | 0.00 | 0.00 | 0.00 | 84 | 1016.5 |
| 20260506044559 | 50 | 314 | 0.0 | 0.0 | 0.00 | 0.00 | 0.00 | 84 | 1016.5 |
| 20260506044057 | 50 | 304 | 1.0 | 3.0 | 0.00 | 0.00 | 0.00 | 84 | 1016.5 |
| 20260506043558 | 50 | 11 | 0.0 | 0.0 | 0.00 | 0.00 | 0.00 | 83 | 1016.5 |
| 20260506043059 | 51 | 11 | 0.0 | 0.0 | 0.00 | 0.00 | 0.00 | 84 | 1016.5 |
| 20260506042600 | 51 | 11 | 0.0 | 0.0 | 0.00 | 0.00 | 0.00 | 83 | 1016.5 |
| 20260506042101 | 51 | 277 | 0.0 | 0.0 | 0.00 | 0.00 | 0.00 | 83 | 1016.5 |
| 20260506041600 | 51 | 314 | 1.0 | 2.0 | 0.00 | 0.00 | 0.00 | 82 | 1016.4 |
| 20260506041101 | 52 | 316 | 1.0 | 4.0 | 0.00 | 0.00 | 0.00 | 82 | 1016.4 |
| 20260506040602 | 52 | 333 | 2.0 | 1.0 | 0.00 | 0.00 | 0.00 | 80 | 1016.4 |
| 20260506035103 | 53 | 307 | 2.0 | 1.0 | 0.00 | 0.00 | 0.00 | 78 | 1016.2 |
| 20260506034105 | 54 | 293 | 0.0 | 0.0 | 0.00 | 0.00 | 0.00 | 75 | 1016.0 |
| 20260506032605 | 55 | 304 | 0.0 | 0.0 | 0.00 | 0.00 | 0.00 | 72 | 1015.9 |
| 20260506032106 | 56 | 304 | 0.0 | 0.0 | 0.00 | 0.00 | 0.00 | 71 | 1015.8 |
| 20260506030610 | 57 | 304 | 1.0 | 0.0 | 0.00 | 0.00 | 0.00 | 69 | 1015.7 |
| 20260506025609 | 58 | 238 | 3.0 | 1.0 | 0.00 | 0.00 | 0.00 | 68 | 1015.7 |
| 20260506025110 | 59 | 293 | 1.0 | 2.0 | 0.00 | 0.00 | 0.00 | 67 | 1015.7 |
| 20260506024611 | 59 | 240 | 1.0 | 0.0 | 0.00 | 0.00 | 0.00 | 66 | 1015.7 |
| 20260506024112 | 59 | 252 | 0.0 | 0.0 | 0.00 | 0.00 | 0.00 | 65 | 1015.6 |
| 20260506022613 | 60 | 294 | 2.0 | 1.0 | 0.00 | 0.00 | 0.00 | 63 | 1015.4 |
| 20260506022114 | 61 | 314 | 0.0 | 0.0 | 0.00 | 0.00 | 0.00 | 62 | 1015.4 |
| 20260506021615 | 61 | 274 | 2.0 | 1.0 | 0.00 | 0.00 | 0.00 | 60 | 1015.4 |
| 20260506021113 | 62 | 290 | 2.0 | 3.0 | 0.00 | 0.00 | 0.00 | 60 | 1015.4 |
| 20260506020614 | 62 | 269 | 1.0 | 0.0 | 0.00 | 0.00 | 0.00 | 59 | 1015.3 |
| 20260506020115 | 62 | 316 | 2.0 | 2.0 | 0.00 | 0.00 | 0.00 | 58 | 1015.3 |
| 20260506014616 | 63 | 263 | 3.0 | 4.0 | 0.00 | 0.00 | 0.00 | 55 | 1015.3 |
| 20260506014117 | 64 | 329 | 3.0 | 5.0 | 0.00 | 0.00 | 0.00 | 54 | 1015.3 |
| 20260506013618 | 64 | 315 | 4.0 | 2.0 | 0.00 | 0.00 | 0.00 | 53 | 1015.2 |
| 20260506013119 | 65 | 301 | 5.0 | 2.0 | 0.00 | 0.00 | 0.00 | 51 | 1015.2 |
| 20260506012620 | 65 | 330 | 4.0 | 3.0 | 0.00 | 0.00 | 0.00 | 51 | 1015.2 |
| 20260506011619 | 65 | 312 | 2.0 | 5.0 | 0.00 | 0.00 | 0.00 | 50 | 1015.1 |
| 20260506011120 | 65 | 302 | 4.0 | 6.0 | 0.00 | 0.00 | 0.00 | 48 | 1015.1 |
| 20260506010621 | 65 | 283 | 4.0 | 0.0 | 0.00 | 0.00 | 0.00 | 47 | 1015.1 |
| 20260506010122 | 66 | 326 | 3.0 | 2.0 | 0.00 | 0.00 | 0.00 | 48 | 1015.0 |
| 20260506005621 | 66 | 304 | 2.0 | 4.0 | 0.00 | 0.00 | 0.00 | 46 | 1015.0 |
| 20260506005122 | 66 | 312 | 4.0 | 5.0 | 0.00 | 0.00 | 0.00 | 47 | 1015.0 |
| 20260506004623 | 66 | 312 | 5.0 | 4.0 | 0.00 | 0.00 | 0.00 | 46 | 1014.9 |
| 20260506004124 | 66 | 295 | 3.0 | 4.0 | 0.00 | 0.00 | 0.00 | 45 | 1014.9 |
| 20260506003625 | 66 | 335 | 5.0 | 2.0 | 0.00 | 0.00 | 0.00 | 45 | 1015.0 |
| 20260506002624 | 66 | 315 | 2.0 | 4.0 | 0.00 | 0.00 | 0.00 | 45 | 1014.9 |
| 20260506002125 | 66 | 290 | 1.0 | 3.0 | 0.00 | 0.00 | 0.00 | 46 | 1014.9 |
| 20260506001128 | 66 | 322 | 4.0 | 4.0 | 0.00 | 0.00 | 0.00 | 48 | 1014.7 |
| 20260506000632 | 66 | 333 | 3.0 | 6.0 | 0.00 | 0.00 | 0.00 | 48 | 1014.7 |
| 20260506000127 | 66 | 294 | 8.0 | 4.0 | 0.00 | 0.00 | 0.00 | 46 | 1014.9 |
| 20260505235628 | 66 | 338 | 6.0 | 2.0 | 0.00 | 0.00 | 0.00 | 46 | 1014.7 |
| 20260505235130 | 67 | 290 | 3.0 | 7.0 | 0.00 | 0.00 | 0.00 | 45 | 1014.9 |
| 20260505234631 | 67 | 307 | 7.0 | 4.0 | 0.00 | 0.00 | 0.00 | 44 | 1014.7 |
| 20260505233630 | 67 | 347 | 6.0 | 3.0 | 0.00 | 0.00 | 0.00 | 43 | 1014.7 |
| 20260505233131 | 67 | 284 | 3.0 | 5.0 | 0.00 | 0.00 | 0.00 | 46 | 1014.7 |
| 20260505232633 | 67 | 321 | 5.0 | 5.0 | 0.00 | 0.00 | 0.00 | 46 | 1014.7 |
| 20260505232134 | 67 | 240 | 4.0 | 0.0 | 0.00 | 0.00 | 0.00 | 44 | 1014.7 |
| 20260505231632 | 68 | 315 | 4.0 | 5.0 | 0.00 | 0.00 | 0.00 | 45 | 1014.7 |
| 20260505231133 | 68 | 295 | 4.0 | 3.0 | 0.00 | 0.00 | 0.00 | 45 | 1014.6 |
| 20260505230634 | 67 | 229 | 5.0 | 0.0 | 0.00 | 0.00 | 0.00 | 45 | 1014.6 |
| 20260505230136 | 67 | 298 | 5.0 | 10.0 | 0.00 | 0.00 | 0.00 | 47 | 1014.9 |
| 20260505225135 | 67 | 332 | 5.0 | 3.0 | 0.00 | 0.00 | 0.00 | 45 | 1014.7 |
| 20260505223638 | 67 | 323 | 3.0 | 3.0 | 0.00 | 0.00 | 0.00 | 47 | 1014.7 |
| 20260505223140 | 66 | 328 | 4.0 | 6.0 | 0.00 | 0.00 | 0.00 | 50 | 1014.7 |
| 20260505222638 | 66 | 291 | 4.0 | 2.0 | 0.00 | 0.00 | 0.00 | 51 | 1014.6 |
| 20260505222139 | 66 | 321 | 0.0 | 3.0 | 0.00 | 0.00 | 0.00 | 51 | 1014.7 |
| 20260505221141 | 67 | 246 | 2.0 | 2.0 | 0.00 | 0.00 | 0.00 | 50 | 1014.7 |
| 20260505220642 | 67 | 257 | 3.0 | 3.0 | 0.00 | 0.00 | 0.00 | 50 | 1014.7 |
| 20260505214644 | 65 | 308 | 4.0 | 3.0 | 0.00 | 0.00 | 0.00 | 49 | 1014.7 |
| 20260505213643 | 66 | 308 | 2.0 | 2.0 | 0.00 | 0.00 | 0.00 | 50 | 1014.7 |
| 20260505212645 | 66 | 316 | 3.0 | 2.0 | 0.00 | 0.00 | 0.00 | 49 | 1014.9 |
| 20260505212146 | 67 | 307 | 2.0 | 1.0 | 0.00 | 0.00 | 0.00 | 48 | 1014.7 |
| 20260505205150 | 65 | 281 | 0.0 | 4.0 | 0.00 | 0.00 | 0.00 | 49 | 1014.9 |
| 20260505203152 | 67 | 314 | 3.0 | 4.0 | 0.00 | 0.00 | 0.00 | 45 | 1014.7 |
| 20260505202653 | 67 | 300 | 4.0 | 3.0 | 0.00 | 0.00 | 0.00 | 47 | 1014.7 |
| 20260505202151 | 67 | 315 | 2.0 | 5.0 | 0.00 | 0.00 | 0.00 | 46 | 1014.7 |
| 20260505201653 | 67 | 309 | 1.0 | 1.0 | 0.00 | 0.00 | 0.00 | 48 | 1014.7 |
| 20260505200655 | 68 | 343 | 4.0 | 4.0 | 0.00 | 0.00 | 0.00 | 46 | 1014.7 |
| 20260505200156 | 68 | 346 | 4.0 | 3.0 | 0.00 | 0.00 | 0.00 | 48 | 1014.7 |
| 20260505195655 | 67 | 35 | 5.0 | 4.0 | 0.00 | 0.00 | 0.00 | 49 | 1014.7 |
| 20260505195156 | 67 | 304 | 1.0 | 2.0 | 0.00 | 0.00 | 0.00 | 49 | 1014.7 |
| 20260505194657 | 67 | 262 | 4.0 | 3.0 | 0.00 | 0.00 | 0.00 | 50 | 1014.6 |
| 20260505194158 | 67 | 335 | 2.0 | 4.0 | 0.00 | 0.00 | 0.00 | 50 | 1014.6 |
| 20260505193659 | 67 | 325 | 3.0 | 4.0 | 0.00 | 0.00 | 0.00 | 51 | 1014.6 |
| 20260505193158 | 67 | 322 | 3.0 | 5.0 | 0.00 | 0.00 | 0.00 | 50 | 1014.6 |
| 20260505192659 | 67 | 295 | 4.0 | 1.0 | 0.00 | 0.00 | 0.00 | 53 | 1014.5 |
| 20260505192200 | 67 | 321 | 4.0 | 6.0 | 0.00 | 0.00 | 0.00 | 52 | 1014.5 |
| 20260505191202 | 67 | 322 | 4.0 | 4.0 | 0.00 | 0.00 | 0.00 | 52 | 1014.5 |
| 20260505190701 | 66 | 304 | 3.0 | 3.0 | 0.00 | 0.00 | 0.00 | 54 | 1014.5 |
| 20260505190202 | 65 | 297 | 4.0 | 4.0 | 0.00 | 0.00 | 0.00 | 55 | 1014.5 |
| 20260505185703 | 65 | 330 | 5.0 | 5.0 | 0.00 | 0.00 | 0.00 | 54 | 1014.5 |
| 20260505185204 | 65 | 335 | 4.0 | 3.0 | 0.00 | 0.00 | 0.00 | 55 | 1014.4 |
| 20260505184203 | 64 | 302 | 3.0 | 2.0 | 0.00 | 0.00 | 0.00 | 56 | 1014.4 |
| 20260505183205 | 63 | 295 | 2.0 | 7.0 | 0.00 | 0.00 | 0.00 | 57 | 1014.3 |
| 20260505182706 | 63 | 10 | 2.0 | 1.0 | 0.00 | 0.00 | 0.00 | 57 | 1014.3 |
| 20260505182207 | 62 | 291 | 3.0 | 8.0 | 0.00 | 0.00 | 0.00 | 60 | 1014.3 |
| 20260505181705 | 61 | 226 | 2.0 | 0.0 | 0.00 | 0.00 | 0.00 | 61 | 1014.1 |
| 20260505181206 | 61 | 336 | 3.0 | 1.0 | 0.00 | 0.00 | 0.00 | 61 | 1014.1 |
| 20260505180707 | 60 | 323 | 7.0 | 3.0 | 0.00 | 0.00 | 0.00 | 65 | 1014.1 |
| 20260505180208 | 60 | 335 | 4.0 | 3.0 | 0.00 | 0.00 | 0.00 | 64 | 1014.1 |
| 20260505175709 | 59 | 352 | 3.0 | 1.0 | 0.00 | 0.00 | 0.00 | 65 | 1014.0 |
| 20260505175207 | 59 | 307 | 1.0 | 3.0 | 0.00 | 0.00 | 0.00 | 68 | 1014.0 |
| 20260505174708 | 59 | 349 | 4.0 | 2.0 | 0.00 | 0.00 | 0.00 | 68 | 1013.9 |
| 20260505174209 | 58 | 280 | 3.0 | 5.0 | 0.00 | 0.00 | 0.00 | 69 | 1013.9 |
| 20260505173710 | 58 | 305 | 2.0 | 2.0 | 0.00 | 0.00 | 0.00 | 69 | 1013.8 |
| 20260505173211 | 58 | 319 | 4.0 | 4.0 | 0.00 | 0.00 | 0.00 | 70 | 1013.9 |
| 20260505172710 | 57 | 278 | 1.0 | 2.0 | 0.00 | 0.00 | 0.00 | 70 | 1013.8 |
| 20260505172211 | 57 | 298 | 1.0 | 2.0 | 0.00 | 0.00 | 0.00 | 70 | 1013.7 |
| 20260505171712 | 57 | 323 | 2.0 | 1.0 | 0.00 | 0.00 | 0.00 | 70 | 1013.7 |
| 20260505171213 | 57 | 309 | 3.0 | 0.0 | 0.00 | 0.00 | 0.00 | 71 | 1013.7 |
| 20260505170714 | 56 | 312 | 2.0 | 2.0 | 0.00 | 0.00 | 0.00 | 73 | 1013.6 |
| 20260505170212 | 55 | 276 | 0.0 | 1.0 | 0.00 | 0.00 | 0.00 | 74 | 1013.6 |
| 20260505165713 | 55 | 342 | 3.0 | 3.0 | 0.00 | 0.00 | 0.00 | 74 | 1013.4 |
| 20260505165214 | 55 | 278 | 3.0 | 2.0 | 0.00 | 0.00 | 0.00 | 75 | 1013.4 |
| 20260505164715 | 55 | 322 | 3.0 | 6.0 | 0.00 | 0.00 | 0.00 | 75 | 1013.4 |
| 20260505164216 | 54 | 312 | 4.0 | 3.0 | 0.00 | 0.00 | 0.00 | 76 | 1013.4 |
| 20260505163714 | 54 | 314 | 3.0 | 4.0 | 0.00 | 0.00 | 0.00 | 77 | 1013.4 |
| 20260505163215 | 54 | 343 | 3.0 | 4.0 | 0.00 | 0.00 | 0.00 | 75 | 1013.3 |
| 20260505162716 | 53 | 328 | 3.0 | 0.0 | 0.00 | 0.00 | 0.00 | 78 | 1013.3 |
| 20260505162217 | 53 | 339 | 1.0 | 0.0 | 0.00 | 0.00 | 0.00 | 78 | 1013.3 |
| 20260505161718 | 53 | 315 | 0.0 | 1.0 | 0.00 | 0.00 | 0.00 | 80 | 1013.3 |
| 20260505160717 | 52 | 308 | 2.0 | 2.0 | 0.00 | 0.00 | 0.00 | 81 | 1013.3 |
| 20260505160218 | 51 | 305 | 1.0 | 2.0 | 0.00 | 0.00 | 0.00 | 81 | 1013.3 |
| 20260505152723 | 49 | 288 | 1.0 | 2.0 | 0.00 | 0.00 | 0.00 | 86 | 1013.0 |
| 20260505152221 | 48 | 269 | 3.0 | 3.0 | 0.00 | 0.00 | 0.00 | 87 | 1013.0 |
| 20260505151722 | 48 | 308 | 1.0 | 1.0 | 0.00 | 0.00 | 0.00 | 88 | 1013.0 |
| 20260505150724 | 48 | 359 | 2.0 | 1.0 | 0.00 | 0.00 | 0.00 | 88 | 1013.0 |
| 20260505150225 | 48 | 278 | 2.0 | 1.0 | 0.00 | 0.00 | 0.00 | 89 | 1013.0 |
| 20260505140229 | 47 | 307 | 0.0 | 0.0 | 0.00 | 0.00 | 0.00 | 93 | 1012.6 |
| 20260505130235 | 46 | 302 | 0.0 | 0.0 | 0.00 | 0.00 | 0.00 | 91 | 1012.2 |
| 20260505124735 | 46 | 276 | 4.0 | 0.0 | 0.00 | 0.00 | 0.00 | 91 | 1012.1 |
| 20260505124236 | 47 | 280 | 0.0 | 0.0 | 0.00 | 0.00 | 0.00 | 91 | 1012.1 |
| 20260505123737 | 47 | 288 | 3.0 | 0.0 | 0.00 | 0.00 | 0.00 | 91 | 1012.1 |
| 20260505123238 | 47 | 339 | 3.0 | 2.0 | 0.00 | 0.00 | 0.00 | 91 | 1012.1 |
| 20260505122736 | 47 | 332 | 0.0 | 0.0 | 0.00 | 0.00 | 0.00 | 91 | 1012.0 |
| 20260505121738 | 47 | 307 | 0.0 | 0.0 | 0.00 | 0.00 | 0.00 | 91 | 1012.1 |
| 20260505121239 | 47 | 298 | 2.0 | 0.0 | 0.00 | 0.00 | 0.00 | 91 | 1012.1 |
| 20260505120740 | 47 | 325 | 4.0 | 4.0 | 0.00 | 0.00 | 0.00 | 91 | 1012.0 |
| 20260505120239 | 47 | 300 | 0.0 | 1.0 | 0.00 | 0.00 | 0.00 | 90 | 1012.0 |
| 20260505115740 | 47 | 300 | 4.0 | 1.0 | 0.00 | 0.00 | 0.00 | 90 | 1012.0 |
| 20260505115241 | 47 | 298 | 2.0 | 0.0 | 0.00 | 0.00 | 0.00 | 90 | 1012.0 |
| 20260505114742 | 47 | 291 | 0.0 | 3.0 | 0.00 | 0.00 | 0.00 | 90 | 1012.0 |
| 20260505114243 | 47 | 291 | 2.0 | 0.0 | 0.00 | 0.00 | 0.00 | 91 | 1012.0 |
| 20260505112743 | 46 | 318 | 1.0 | 1.0 | 0.00 | 0.00 | 0.00 | 90 | 1012.1 |
| 20260505112244 | 46 | 304 | 2.0 | 0.0 | 0.00 | 0.00 | 0.00 | 91 | 1012.1 |
| 20260505111745 | 46 | 290 | 0.0 | 0.0 | 0.00 | 0.00 | 0.00 | 91 | 1012.1 |
| 20260505110744 | 46 | 297 | 3.0 | 1.0 | 0.00 | 0.00 | 0.00 | 90 | 1012.1 |
| 20260505110245 | 46 | 287 | 4.0 | 0.0 | 0.00 | 0.00 | 0.00 | 90 | 1012.1 |
| 20260505101749 | 47 | 269 | 3.0 | 2.0 | 0.00 | 0.00 | 0.00 | 89 | 1012.1 |
| 20260505100252 | 47 | 262 | 5.0 | 1.0 | 0.00 | 0.00 | 0.00 | 89 | 1012.1 |
| 20260505095750 | 47 | 318 | 5.0 | 3.0 | 0.00 | 0.00 | 0.00 | 89 | 1012.1 |
| 20260505095251 | 47 | 284 | 4.0 | 0.0 | 0.00 | 0.00 | 0.00 | 89 | 1012.1 |
| 20260505094253 | 47 | 295 | 2.0 | 2.0 | 0.00 | 0.00 | 0.00 | 90 | 1012.0 |
| 20260505093253 | 47 | 290 | 1.0 | 5.0 | 0.00 | 0.00 | 0.00 | 90 | 1012.1 |
| 20260505092754 | 47 | 301 | 0.0 | 5.0 | 0.00 | 0.00 | 0.00 | 91 | 1012.1 |
| 20260505092255 | 47 | 301 | 1.0 | 2.0 | 0.00 | 0.00 | 0.00 | 90 | 1012.1 |
| 20260505091756 | 47 | 321 | 2.0 | 2.0 | 0.00 | 0.00 | 0.00 | 90 | 1012.1 |
| 20260505090256 | 47 | 312 | 2.0 | 1.0 | 0.00 | 0.00 | 0.00 | 90 | 1012.1 |
| 20260505085757 | 47 | 297 | 0.0 | 4.0 | 0.00 | 0.00 | 0.00 | 90 | 1012.1 |
| 20260505085258 | 47 | 307 | 2.0 | 0.0 | 0.00 | 0.00 | 0.00 | 89 | 1012.2 |